Tracking 29892 objects as of 21-Nov-2024
HD Live streaming from Space Station
objects crossing your sky now

DMSP 5D-2 F13 DEB

Track DMSP 5D-2 F13 DEB now!
10-day predictions


NORAD ID: 42280
Int'l Code: 1995-015GW
Perigee: 682.6 km
Apogee: 689.5 km
Inclination: 98.8 °
Period: 98.3 minutes
Semi major axis: 7057 km
RCS: Unknown
Launch date: March 24, 1995
Source: United States (US)
Launch site: AIR FORCE WESTERN TEST RANGE (AFWTR)

Note: This is SATELLITE DEBRIS
Your satellite tracking list
Your tracking list is empty




NASA's NSSDC Master Catalog

Two Line Element Set (TLE):
1 42280U 95015GW  24325.09967460  .00053540  00000-0  10048-1 0  9994
2 42280  98.7509  24.3470 0004846  32.5267 327.6232 14.64431573498995
Source of the keplerian elements: AFSPC